Weather History for KIBM - July, 2013

Change the Weather History Date:

Saturday, July 27, 2013

  Actual Average (KSNY) Record (KSNY)
Temperature  
Mean Temperature 58 °F 76 °F  
Max Temperature 63 °F 91 °F 101 °F (2012)
Min Temperature 52 °F 61 °F 49 °F (2005)
Degree Days  
Heating Degree Days 8 0  
Month to date heating degree days 0  
Since 1 June heating degree days 59  
Since 1 July heating degree days 0  
Cooling Degree Days 0 11  
Month to date cooling degree days 277  
Year to date cooling degree days 436  
Since 1 June cooling degree days 414  
Growing Degree Days 8 (Base 50)    
Moisture  
Dew Point 53 °F    
Average Humidity 85    
Maximum Humidity 96    
Minimum Humidity 71    
Precipitation  
Precipitation 0.00 in 0.10 in 2.57 in (1970)
Month to date precipitation 2.60  
Year to date precipitation 12.54  
Sea Level Pressure  
Sea Level Pressure 30.15 in    
Wind  
Wind Speed 6 mph (ESE)    
Max Wind Speed 15 mph    
Max Gust Speed 17 mph    
Visibility 8 miles    
Events Fog , Rain    
T = Trace of Precipitation, MM = Missing Value Source: NWS Daily Summary

Daily Weather History Graph

Daily Weather History Graph

Search for Another Location

Airport or City:

Trip Planner

Search our weather history database for the weather conditions in past years. The results will help you decide how hot, cold, wet, or windy it might be!

Date:

Astronomy

Jul. 27, 2013 Rise Set
Actual Time 6:45 AM CDT 9:16 PM CDT
Civil Twilight 6:14 AM CDT 9:47 PM CDT
Nautical Twilight 5:34 AM CDT 10:26 PM CDT
Astronomical Twilight 4:50 AM CDT 11:10 PM CDT
Moon No Moon Rise 12:32 PM CDT (7/27)
Length of Visible Light 15h 33m
Length of Day
14h 30m
Waning Gibbous, 70% of the Moon is Illuminated
Jul 27
Waning Gibbous
Jul 29
Last Quarter
Aug 6
New
Aug 14
First Quarter
Aug 20
Full

Hourly Weather History & Observations

Time (CDT) Temp. Dew Point Humidity Pressure Visibility Wind Dir Wind Speed Gust Speed Precip Events Conditions
12:15 AM 63.5 °F 59.0 °F 85% 30.22 in 10.0 mi Calm Calm - N/A   Scattered Clouds
12:35 AM 62.8 °F 58.3 °F 85% 30.22 in 10.0 mi SSW 6.9 mph - N/A   Scattered Clouds
12:55 AM 62.6 °F 58.3 °F 86% 30.22 in 10.0 mi South 4.6 mph - N/A   Scattered Clouds
1:15 AM 61.7 °F 57.7 °F 87% 30.21 in 10.0 mi South 5.8 mph - N/A   Clear
1:35 AM 61.7 °F 57.6 °F 86% 30.20 in 10.0 mi SSW 3.5 mph - N/A   Clear
1:55 AM 60.3 °F 55.6 °F 85% 30.19 in 10.0 mi Calm Calm - N/A   Clear
2:15 AM 59.2 °F 55.0 °F 86% 30.19 in 10.0 mi Calm Calm - N/A   Clear
2:35 AM 59.2 °F 53.8 °F 82% 30.19 in 10.0 mi Calm Calm - N/A   Clear
2:55 AM 57.2 °F 52.7 °F 85% 30.17 in 10.0 mi Calm Calm - N/A   Clear
3:15 AM 56.3 °F 52.5 °F 87% 30.17 in 10.0 mi Calm Calm - N/A   Clear
3:35 AM 56.3 °F 53.1 °F 89% 30.16 in 10.0 mi Calm Calm - N/A   Clear
3:55 AM 58.1 °F 52.0 °F 80% 30.15 in 10.0 mi SSW 3.5 mph - N/A   Clear
4:15 AM 56.7 °F 50.9 °F 81% 30.15 in 10.0 mi Calm Calm - N/A   Clear
4:35 AM 54.1 °F 50.4 °F 87% 30.15 in 10.0 mi East 5.8 mph - N/A   Clear
4:55 AM 54.9 °F 52.9 °F 93% 30.15 in 10.0 mi ENE 4.6 mph - N/A   Clear
5:15 AM 54.9 °F 53.2 °F 94% 30.15 in 5.0 mi East 3.5 mph - N/A   Clear
5:35 AM 54.1 °F 52.7 °F 95% 30.15 in 4.0 mi ENE 4.6 mph - N/A   Clear
5:55 AM 53.8 °F 52.3 °F 95% 30.15 in 4.0 mi East 5.8 mph - N/A   Clear
6:15 AM 53.1 °F 51.8 °F 95% 30.15 in 5.0 mi ENE 6.9 mph - N/A   Clear
6:35 AM 52.9 °F 51.4 °F 95% 30.15 in 7.0 mi ENE 5.8 mph - N/A   Scattered Clouds
6:55 AM 53.6 °F 52.2 °F 95% 30.15 in 4.0 mi East 8.1 mph - N/A   Overcast
7:15 AM 53.8 °F 52.5 °F 95% 30.15 in 2.0 mi East 11.5 mph - N/A   Overcast
7:35 AM 54.0 °F 52.7 °F 95% 30.15 in 1.5 mi East 11.5 mph - N/A   Overcast
7:55 AM 53.8 °F 52.7 °F 96% 30.15 in 0.2 mi East 12.7 mph - N/A Fog Fog
8:15 AM 54.5 °F 53.1 °F 95% 30.15 in 0.2 mi ESE 10.4 mph - N/A Fog Fog
8:35 AM 54.5 °F 53.2 °F 96% 30.15 in 0.5 mi East 10.4 mph - N/A Fog Fog
8:55 AM 54.7 °F 53.4 °F 96% 30.16 in 0.2 mi East 12.7 mph - N/A Fog Fog
9:15 AM 54.5 °F 53.2 °F 96% 30.16 in 0.8 mi East 10.4 mph - N/A   Overcast
9:35 AM 54.7 °F 53.4 °F 96% 30.16 in 2.5 mi East 10.4 mph - N/A   Overcast
9:55 AM 54.7 °F 53.1 °F 94% 30.15 in 4.0 mi East 10.4 mph - N/A   Overcast
10:15 AM 56.1 °F 53.2 °F 90% 30.16 in 7.0 mi East 10.4 mph 16.1 mph N/A   Overcast
10:35 AM 55.8 °F 52.7 °F 89% 30.17 in 10.0 mi East 11.5 mph 17.3 mph N/A   Overcast
10:55 AM 56.3 °F 52.3 °F 87% 30.16 in 10.0 mi ESE 11.5 mph - N/A   Overcast
11:15 AM 57.4 °F 52.3 °F 83% 30.16 in 10.0 mi East 10.4 mph - N/A   Overcast
11:35 AM 57.7 °F 52.2 °F 82% 30.17 in 10.0 mi ESE 11.5 mph - N/A   Overcast
11:55 AM 57.2 °F 52.2 °F 83% 30.17 in 10.0 mi ESE 11.5 mph - N/A   Overcast
12:15 PM 56.7 °F 52.0 °F 84% 30.17 in 10.0 mi East 10.4 mph - N/A   Overcast
12:35 PM 57.2 °F 52.3 °F 84% 30.17 in 10.0 mi East 12.7 mph - N/A   Overcast
12:55 PM 57.4 °F 52.5 °F 84% 30.17 in 10.0 mi East 12.7 mph 16.1 mph N/A   Overcast
1:15 PM 57.2 °F 52.3 °F 84% 30.19 in 10.0 mi East 10.4 mph - N/A   Overcast
1:35 PM 56.8 °F 52.5 °F 85% 30.19 in 10.0 mi ESE 9.2 mph - N/A   Overcast
1:55 PM 57.2 °F 52.7 °F 85% 30.17 in 10.0 mi ESE 10.4 mph - N/A   Overcast
2:15 PM 57.4 °F 52.7 °F 84% 30.17 in 10.0 mi ESE 13.8 mph - N/A   Overcast
2:35 PM 57.6 °F 52.9 °F 84% 30.15 in 10.0 mi SE 15.0 mph - N/A   Overcast
2:55 PM 58.5 °F 52.5 °F 81% 30.15 in 10.0 mi SSE 12.7 mph - N/A   Overcast
3:15 PM 60.1 °F 52.5 °F 76% 30.16 in 10.0 mi SE 11.5 mph - N/A   Overcast
3:35 PM 59.9 °F 52.7 °F 77% 30.15 in 10.0 mi SE 8.1 mph - N/A   Overcast
3:55 PM 59.7 °F 52.7 °F 78% 30.15 in 10.0 mi East 8.1 mph - N/A   Overcast
4:15 PM 60.1 °F 52.7 °F 77% 30.15 in 10.0 mi ESE 8.1 mph - N/A   Overcast
4:35 PM 60.4 °F 52.9 °F 76% 30.13 in 10.0 mi ESE 10.4 mph - N/A   Overcast
4:55 PM 60.6 °F 52.9 °F 76% 30.12 in 10.0 mi SE 10.4 mph - N/A   Overcast
5:15 PM 60.4 °F 53.1 °F 77% 30.11 in 10.0 mi SE 10.4 mph - N/A   Overcast
5:35 PM 61.7 °F 52.9 °F 73% 30.11 in 10.0 mi SE 8.1 mph - N/A   Overcast
5:55 PM 62.8 °F 53.4 °F 71% 30.12 in 10.0 mi ESE 8.1 mph - N/A   Overcast
6:15 PM 61.9 °F 53.6 °F 74% 30.12 in 10.0 mi SE 8.1 mph - N/A   Overcast
6:35 PM 61.5 °F 53.6 °F 75% 30.12 in 10.0 mi ESE 6.9 mph - N/A   Overcast
6:55 PM 61.0 °F 53.4 °F 76% 30.15 in 10.0 mi Calm Calm - N/A   Overcast
7:15 PM 61.5 °F 53.6 °F 75% 30.13 in 10.0 mi SW 6.9 mph - N/A   Overcast
7:35 PM 61.2 °F 53.6 °F 76% 30.12 in 10.0 mi Calm Calm - N/A Rain Light Rain
7:55 PM 61.2 °F 53.6 °F 76% 30.13 in 10.0 mi NNW 5.8 mph - N/A Rain Light Rain
8:15 PM 61.2 °F 53.6 °F 76% 30.13 in 10.0 mi Calm Calm - N/A   Scattered Clouds
8:35 PM 60.4 °F 53.8 °F 79% 30.13 in 10.0 mi ENE 4.6 mph - N/A   Mostly Cloudy
8:55 PM 59.9 °F 53.8 °F 80% 30.13 in 10.0 mi ESE 5.8 mph - N/A Rain Light Rain
9:15 PM 59.4 °F 54.5 °F 84% 30.12 in 10.0 mi SE 3.5 mph - N/A   Light Drizzle
9:35 PM 58.6 °F 54.1 °F 85% 30.12 in 10.0 mi ESE 4.6 mph - N/A   Scattered Clouds
9:55 PM 59.0 °F 54.5 °F 85% 30.11 in 10.0 mi SE 5.8 mph - N/A   Scattered Clouds
10:15 PM 59.0 °F 54.1 °F 84% 30.12 in 10.0 mi SSE 5.8 mph - N/A   Mostly Cloudy
10:35 PM 58.6 °F 54.7 °F 87% 30.13 in 10.0 mi SE 4.6 mph - N/A Rain Light Rain
10:55 PM 58.1 °F 55.2 °F 90% 30.13 in 10.0 mi South 5.8 mph - N/A Rain Light Rain
11:15 PM 58.1 °F 55.4 °F 91% 30.13 in 10.0 mi SSE 3.5 mph - N/A Rain Light Rain
11:35 PM 58.1 °F 55.4 °F 91% 30.13 in 10.0 mi South 9.2 mph - N/A   Drizzle
11:55 PM 57.6 °F 55.2 °F 92% 30.13 in 7.0 mi South 12.7 mph - N/A   Light Drizzle